Regional Weather Roundup
Issued by NWS Northern Indiana

Home | Current Version | Previous Version | Text Only | Print | Product List | Glossary On
Versions: 1 2 3 4 5 6 7 8 9 10 11 12 13 14 15 16 17 18 19 20 21 22 23 24 25 26 27 28 29 30 31 32 33 34 35 36 37 38 39 40 41 42 43 44 45 46 47 48 49 50
307
ASUS43 KIWX 291210
RWRIWX

KIWX WEATHER ROUNDUP
NATIONAL WEATHER SERVICE NORTHERN INDIANA
800 AM EDT SAT JUL 29 2017

NOTE: "FAIR" INDICATES FEW OR NO CLOUDS BELOW 12,000 FEET WITH NO
SIGNIFICANT WEATHER AND/OR OBSTRUCTIONS TO VISIBILITY.

* THESE STATIONS ARE NOT UNDER NWS QUALITY CONTROL. THEY ALSO MAY NOT
  REPORT WEATHER SUCH AS PRECIPITATION OR FOG.

INZ001>027-291300-
NORTHERN INDIANA

CITY           SKY/WX    TMP DP  RH WIND       PRES   REMARKS
GARY*          MOSUNNY   66  54  63 NE10G22   30.10R
VALPARAISO     SUNNY     60  53  77 NE3       30.10R
6HR MIN TEMP:  55; 6HR MAX TEMP:  63;

MICHIGAN CITY* SUNNY     55  50  82 E5        30.11R
LAPORTE*       SUNNY     58  51  79 NE7       30.11R
6HR MIN TEMP:  53; 6HR MAX TEMP:  62;

KNOX*          SUNNY     54  52  94 N3        30.09R
SOUTH BEND     SUNNY     57  51  80 NE9       30.11R
6HR MIN TEMP:  51; 6HR MAX TEMP:  60;

ELKHART*       SUNNY     59  50  72 NE5       30.09
GOSHEN         SUNNY     58  51  78 NE8       30.09R
6HR MIN TEMP:  52; 6HR MAX TEMP:  58;

MONTICELLO*    SUNNY     56  50  81 N9        30.06R
6HR MIN TEMP:  54; 6HR MAX TEMP:  63;

LOGANSPORT*    SUNNY     55  50  82 N5        30.07R
ROCHESTER*     SUNNY     57  52  82 N5        30.08R
WARSAW*        SUNNY     57  54  88 NE6       30.08R
AUBURN*        SUNNY     59  52  77 NE8       30.07R
FORT WAYNE     MOSUNNY   61  53  75 NE9       30.06R
6HR MIN TEMP:  55; 6HR MAX TEMP:  62;

HUNTINGTON*    SUNNY     56  53  89 CALM      30.05R
6HR MIN TEMP:  53; 6HR MAX TEMP:  59;

PERU/GRISSOM   SUNNY     58  52  81 NE12      30.04R
6HR MIN TEMP:  55; 6HR MAX TEMP:  62;

MARION*        SUNNY     57  52  82 NE6       30.05R HAZE

$$
INZ028>050-291300-
CENTRAL INDIANA

CITY           SKY/WX    TMP DP  RH WIND       PRES   REMARKS
LAFAYETTE      SUNNY     57  51  80 NE7       30.06R
6HR MIN TEMP:  55; 6HR MAX TEMP:  64;

KOKOMO*        SUNNY     58  53  84 NE9       30.06R
6HR MIN TEMP:  55; 6HR MAX TEMP:  62;

MUNCIE*        SUNNY     59  53  80 NE8       30.03R
6HR MIN TEMP:  56; 6HR MAX TEMP:  62;

INDIANAPOLIS   SUNNY     62  52  69 NE13      30.02R
6HR MIN TEMP:  60; 6HR MAX TEMP:  67;


$$
MIZ043>046-050>051-056>058-064>065-071>073-077>080-291300-
SOUTHWEST LOWER MICHIGAN

CITY           SKY/WX    TMP DP  RH WIND       PRES   REMARKS
BATTLE CREEK   SUNNY     58  52  80 NE7       30.12R
6HR MIN TEMP:  52; 6HR MAX TEMP:  58;

BENTON HARBOR  SUNNY     58  49  72 NE7       30.11R
6HR MIN TEMP:  53; 6HR MAX TEMP:  61;

COLDWATER*     SUNNY     58  54  86 NE6       30.10R
6HR MIN TEMP:  54; 6HR MAX TEMP:  58;

HILLSDALE*     PTSUNNY   59  52  77 NE9       30.08S
HOLLAND        SUNNY     61  47  59 VRB3      30.14R
6HR MIN TEMP:  53; 6HR MAX TEMP:  61;

GRAND RAPIDS   SUNNY     60  51  72 NE6       30.13R
6HR MIN TEMP:  53; 6HR MAX TEMP:  60;

KALAMAZOO      SUNNY     60  51  72 N3        30.12R
6HR MIN TEMP:  54; 6HR MAX TEMP:  60;

STURGIS*       SUNNY     57  52  82 NE10      30.09R
6HR MIN TEMP:  53; 6HR MAX TEMP:  57;

THREE RIVERS*  FAIR      58  51  79 NE6       30.11R
6HR MIN TEMP:  54; 6HR MAX TEMP:  58;


$$
OHZ001>008-015>018-024>025-291300-
NORTHWEST OHIO

CITY           SKY/WX    TMP DP  RH WIND       PRES   REMARKS
WAUSEON*       FAIR      61  55  82 N8        30.06R
DEFIANCE       SUNNY     59  53  80 N9        30.06R
6HR MIN TEMP:  56; 6HR MAX TEMP:  59;

FINDLAY        SUNNY     61  54  77 N9        30.02R
6HR MIN TEMP:  57; 6HR MAX TEMP:  64;

TOLEDO EXPRESS SUNNY     59  56  89 N10       30.05R
6HR MIN TEMP:  55; 6HR MAX TEMP:  59;

TOLEDO METCALF SUNNY     65  60  84 N7        30.05R
6HR MIN TEMP:  60; 6HR MAX TEMP:  66;

LIMA           MOSUNNY   57  55  93 N10       30.03R
6HR MIN TEMP:  54; 6HR MAX TEMP:  60;


$$
AND FOR LAKE MICHIGAN COASTAL AND OPEN LAKE BUOY OBSERVATIONS

STATION/POSITION TEMP    WIND        PRES    VSBY  WAVE
                 AIR SEA DIR/SP/G                  HT/PER
                 (F)     (DEG/KT/KT) (MB)    (MI)  (FT/S)
CALUMET HARBOR    67      40/ 10/ 16 1018.9R
MICHIGAN CITY     61      60/ 13/ 14   N/A
BURNS HARBOR      65      70/ 16/ 22 1019.3R
SAINT JOSEPH      59      50/  2/ 10 1020.3
SOUTH LAKE BUOY   69 71   40/ 14/ 16 1020.0R         3/ 4
4 MI NW BRIDGMAN  62 70   80/ 12/ 16 1019.7          3/ 5
MICHIGAN CITY     65 72   70/ 16/ 19   N/A           4/ 6

$$
&&




USA.gov is the U.S. government's official web portal to all federal, state and local government web resources and services.